Location: Valencia
(39.4696°N, 0.3770°W)
Time: 06:25:27
(UTC+02:00)

ISS - Visible Passes

Search period start: 29 March 2015 00:00
Search period end: 08 April 2015 01:00
Orbit: 396 x 406 km, 51.6° (Epoch: 28 March)

Date Brightness Start Highest point End Pass type
(mag) Time Alt. Az. Time Alt. Az. Time Alt. Az.
29 Mar -1.6 06:15:44 15° NNW 06:17:51 30° NNE 06:20:46 10° E visible
30 Mar -0.6 05:24:54 19° NE 05:24:54 19° NE 05:26:46 10° ENE visible
30 Mar -3.4 06:57:44 10° WNW 07:00:55 61° SW 07:04:06 10° SE visible
31 Mar -3.0 06:06:54 49° NNW 06:07:32 64° NE 06:10:43 10° ESE visible
01 Apr -0.2 05:16:32 13° E 05:16:32 13° E 05:17:00 10° E visible
01 Apr -2.2 06:49:11 20° WSW 06:50:18 24° SW 06:52:58 10° S visible
02 Apr -1.2 05:59:07 18° SSE 05:59:07 18° SSE 06:00:04 10° SE visible
02 Apr -0.4 22:31:43 10° SW 22:31:47 10° SW 22:31:47 10° SW visible
03 Apr -2.8 21:38:30 10° SSW 21:41:31 36° SE 21:42:01 34° ESE visible
04 Apr -2.3 22:21:09 10° WSW 22:24:17 45° NNW 22:24:34 43° NNW visible
05 Apr -3.4 21:27:24 10° SW 21:30:40 89° NW 21:33:56 10° NE visible
05 Apr -0.3 23:05:13 10° WNW 23:06:44 16° NW 23:06:44 16° NW visible
06 Apr -1.1 22:10:52 10° W 22:13:37 24° NNW 22:15:56 12° NNE visible
07 Apr -2.0 21:16:44 10° WSW 21:19:49 40° NNW 21:22:56 10° NE visible
07 Apr -0.3 22:55:28 10° NW 22:56:55 12° NNW 22:57:30 12° N visible
